This is the latest recevied weather packets stored in our database for station/object M3YFM-13. If no packets are shown the sender has not sent any weather packets the latest 10 day(s).
| Time | Temp. | Humidity | Pressure | Rain* | Wind** | Luminosity | Snow |
|---|---|---|---|---|---|---|---|
| 1778066389 | 12.78° C | 49% | - | 0 mm | - | - | - |
| 1778066089 | 11.67° C | 50% | - | 0 mm | - | - | - |
| 1778065789 | 11.67° C | 51% | - | 0 mm | - | - | - |
| 1778065188 | 12.22° C | 50% | - | 0 mm | - | - | - |
| 1778064888 | 11.67° C | 51% | - | 0 mm | - | - | - |
| 1778064587 | 11.67° C | 52% | - | 0 mm | - | - | - |
| 1778064287 | 11.67° C | 52% | - | 0 mm | - | - | - |
| 1778063987 | 11.11° C | 52% | - | 0 mm | - | - | - |
| 1778063687 | 11.67° C | 51% | - | 0 mm | - | - | - |
| 1778063387 | 12.22° C | 52% | - | 0 mm | - | - | - |
| 1778063086 | 11.67° C | 50% | - | 0 mm | - | - | - |
| 1778062786 | 11.67° C | 51% | - | 0 mm | - | - | - |
| 1778062486 | 11.11° C | 53% | - | 0 mm | - | - | - |
| 1778062185 | 11.11° C | 54% | - | 0 mm | - | - | - |
| 1778061885 | 11.11° C | 56% | - | 0 mm | - | - | - |
| 1778061585 | 10.56° C | 57% | - | 0 mm | - | - | - |
| 1778061284 | 10.56° C | 57% | - | 0 mm | - | - | - |
| 1778060984 | 10.56° C | 58% | - | 0 mm | - | - | - |
| 1778060684 | 10.56° C | 59% | - | 0 mm | - | - | - |
| 1778060383 | 11.11° C | 59% | - | 0 mm | - | - | - |
| 1778060083 | 11.67° C | 56% | - | 0 mm | - | - | - |
| 1778059783 | 11.11° C | 58% | - | 0 mm | - | - | - |
| 1778059483 | 11.11° C | 59% | - | 0 mm | - | - | - |
| 1778059182 | 11.67° C | 60% | - | 0 mm | - | - | - |
| 1778058882 | 10.56° C | 60% | - | 0 mm | - | - | - |
* Rain since midnight (hover to see other rain measurements)
** Current wind speed in m/s (hover to see current wind gust speed)